{"data":{"norad_id":62089,"intl_designator":"2024-220B","name":"STARLINK-11379 [DTC]","alt_names":[],"object_type":"PAYLOAD","status":"ACTIVE","operator":null,"country":"US","launch_date":"2024-11-25","launch_site_code":"AFETR","launch_vehicle":null,"mission":null,"orbit_class":"UNKNOWN","rcs_meters":null,"size_class":null,"mass_kg":null,"dimensions":null,"purposes":["comms"],"wikipedia_slug":null,"has_3d_model":false,"image_url":null,"decayed_at":null,"tle_current":{"epoch":"2026-09-20T09:44:28.781088Z","epoch_age_seconds":189283,"freshness":"STALE","line1":"1 62089U 24220B   26263.40588867  .00113690  00000+0  87771-3 0  9992","line2":"2 62089  42.9998 309.6875 0001374 266.1611  93.9099 15.70832745105573","mean_motion":15.70832745,"eccentricity":0.0001374,"inclination_deg":42.9998,"raan_deg":309.6875,"arg_perigee_deg":266.1611,"mean_anomaly_deg":93.9099,"bstar":0.00087771,"rev_number":10557,"period_min":91.671121867274,"perigee_km":355.59045650175,"apogee_km":357.44113909059,"semimajor_km":6734.6527977962,"source":"CELESTRAK","updated_at":"2026-09-22T09:00:49.496140Z"}}}